K7D3 Weather Reports


time (UTC)temp
C
wind
direction
speed
KPH
gust
KPH
rain 1hr
cm
rain 24hr
cm
rain mn
cm
humidity
%
barometer
mb
20260509102035 11 246 9.7 9.7 0.00 0.00 0.00 82
20260509101236 11 250 11.3 11.3 0.00 0.00 0.00 82
20260509100434 11 253 9.7 8.0 0.00 0.00 0.00 81
20260509095634 11 238 16.1 12.9 0.00 0.00 0.00 81
20260509094834 11 236 12.9 11.3 0.00 0.00 0.00 79
20260509094032 11 225 9.7 11.3 0.00 0.00 0.00 78
20260509093233 11 243 16.1 16.1 0.00 0.00 0.00 78
20260509092434 11 249 14.5 11.3 0.00 0.00 0.00 76
20260509091632 11 225 14.5 14.5 0.00 0.00 0.00 76
20260509090833 11 257 9.7 8.0 0.00 0.00 0.00 74
20260509090034 11 280 11.3 11.3 0.00 0.00 0.00 73
20260509085231 11 229 12.9 12.9 0.00 0.00 0.00 71
20260509084432 11 239 11.3 9.7 0.00 0.00 0.00 70
20260509083633 11 249 12.9 12.9 0.00 0.00 0.00 67
20260509082831 11 245 8.0 8.0 0.00 0.00 0.00 65
20260509082032 11 248 12.9 12.9 0.00 0.00 0.00 62
20260509081232 11 245 11.3 9.7 0.00 0.00 0.00 60
20260509080430 11 256 12.9 19.3 0.00 0.00 0.00 57
20260509075631 11 262 11.3 12.9 0.00 0.00 0.00 54
20260509074832 11 232 11.3 16.1 0.00 0.00 0.00 50
20260509074030 11 212 12.9 9.7 0.00 0.00 0.00 48
20260509073230 11 255 16.1 14.5 0.00 0.00 0.00 47
20260509072431 12 217 14.5 14.5 0.00 0.00 0.00 46
20260509071629 12 249 16.1 16.1 0.00 0.00 0.00 44
20260509070829 11 256 12.9 14.5 0.00 0.00 0.00 43
20260509070030 11 257 12.9 11.3 0.00 0.00 0.00 42
20260509065227 11 229 11.3 8.0 0.00 0.00 0.00 41
20260509064428 11 183 6.4 0.0 0.00 0.00 0.00 40
20260509063629 10 219 3.2 8.0 0.00 0.00 0.00 41
20260509062826 8 198 0.0 0.0 0.00 0.00 0.00 49
20260509062027 8 198 0.0 0.0 0.00 0.00 0.00 54
20260509061228 8 198 0.0 0.0 0.00 0.00 0.00 56
20260509060422 7 211 0.0 0.0 0.00 0.00 0.00 58
20260509055622 7 211 0.0 0.0 0.00 0.00 0.00 64
20260509054823 7 211 0.0 0.0 0.00 0.00 0.00 60
20260509054020 7 211 0.0 0.0 0.00 0.00 0.00 61
20260509053221 7 211 0.0 0.0 0.00 0.00 0.00 61
20260509052422 7 211 0.0 0.0 0.00 0.00 0.00 61
20260509051619 7 211 0.0 0.0 0.00 0.00 0.00 57
20260509050820 7 211 0.0 0.0 0.00 0.00 0.00 55
20260509050020 7 211 0.0 0.0 0.00 0.00 0.00 54
20260509045216 8 211 0.0 0.0 0.00 0.00 0.00 53
20260509044417 8 211 0.0 0.0 0.00 0.00 0.00 50
20260509043618 8 211 0.0 0.0 0.00 0.00 0.00 47
20260509042815 10 211 0.0 0.0 0.00 0.00 0.00 44
20260509042016 10 211 0.0 0.0 0.00 0.00 0.00 42
20260509041217 9 211 0.0 0.0 0.00 0.00 0.00 44
20260509040414 8 211 0.0 0.0 0.00 0.00 0.00 52
20260509035615 8 211 0.0 0.0 0.00 0.00 0.00 52
20260509034816 8 211 0.0 0.0 0.00 0.00 0.00 56
20260509034014 8 211 0.0 0.0 0.00 0.00 0.00 54
20260509033214 7 211 0.0 0.0 0.00 0.00 0.00 52
20260509032413 7 211 0.0 0.0 0.00 0.00 0.00 56
20260509031611 7 211 0.0 0.0 0.00 0.00 0.00 54
20260509030812 7 211 0.0 0.0 0.00 0.00 0.00 52
20260509030012 7 211 0.0 0.0 0.00 0.00 0.00 50
20260509025210 8 211 0.0 0.0 0.00 0.00 0.00 48
20260509024411 8 211 0.0 0.0 0.00 0.00 0.00 48
20260509023612 8 211 0.0 0.0 0.00 0.00 0.00 46
20260509022807 8 211 0.0 0.0 0.00 0.00 0.00 46
20260509022008 8 211 0.0 0.0 0.00 0.00 0.00 45
20260509021209 9 211 0.0 0.0 0.00 0.00 0.00 44
20260509020406 10 211 0.0 0.0 0.00 0.00 0.00 42
20260509015607 11 211 0.0 0.0 0.00 0.00 0.00 40
20260509014809 12 211 0.0 0.0 0.00 0.00 0.00 36
20260509014003 12 211 0.0 0.0 0.00 0.00 0.00 35
20260509013205 13 211 3.2 0.0 0.00 0.00 0.00 33
20260509012406 13 205 0.0 0.0 0.00 0.00 0.00 32
20260509011604 13 203 0.0 6.4 0.00 0.00 0.00 30
20260509010805 13 236 6.4 4.8 0.00 0.00 0.00 30
20260509010006 13 229 8.0 6.4 0.00 0.00 0.00 30
20260509005204 14 233 8.0 4.8 0.00 0.00 0.00 29
20260509004405 15 231 9.7 8.0 0.00 0.00 0.00 29
20260509003606 15 243 11.3 9.7 0.00 0.00 0.00 29
20260509002804 15 262 9.7 4.8 0.00 0.00 0.00 28
20260509002005 15 255 8.0 8.0 0.00 0.00 0.00 28
20260509001202 15 235 11.3 11.3 0.00 0.00 0.00 27
20260509000400 15 263 11.3 11.3 0.00 0.00 0.00 27
20260508235601 15 249 11.3 12.9 0.00 0.00 0.00 26
20260508234802 15 271 9.7 8.0 0.00 0.00 0.00 27
20260508234000 15 312 9.7 8.0 0.00 0.00 0.00 25
20260508233201 16 278 11.3 12.9 0.00 0.00 0.00 25
20260508232402 15 321 11.3 11.3 0.00 0.00 0.00 26
20260508231600 16 285 16.1 22.5 0.00 0.00 0.00 25
20260508230802 16 274 16.1 17.7 0.00 0.00 0.00 25
20260508230003 16 288 20.9 14.5 0.00 0.00 0.00 24
20260508225201 16 245 11.3 8.0 0.00 0.00 0.00 24
20260508224401 16 291 19.3 17.7 0.00 0.00 0.00 24
20260508223603 17 259 9.7 12.9 0.00 0.00 0.00 23
20260508222801 17 260 16.1 17.7 0.00 0.00 0.00 24
20260508222002 16 323 8.0 8.0 0.00 0.00 0.00 23
20260508221204 16 319 20.9 14.5 0.00 0.00 0.00 23
20260508220401 16 256 16.1 17.7 0.00 0.00 0.00 23
20260508215603 17 255 9.7 22.5 0.00 0.00 0.00 23
20260508214804 17 264 14.5 17.7 0.00 0.00 0.00 23
20260508214002 17 242 19.3 12.9 0.00 0.00 0.00 23
20260508213203 17 305 1.6 0.0 0.00 0.00 0.00 23
20260508212404 16 256 17.7 14.5 0.00 0.00 0.00 22
20260508211602 17 353 12.9 11.3 0.00 0.00 0.00 24
20260508210804 17 309 8.0 11.3 0.00 0.00 0.00 22
20260508210005 17 297 11.3 9.7 0.00 0.00 0.00 24
20260508205203 16 271 14.5 12.9 0.00 0.00 0.00 23
20260508204405 16 276 14.5 22.5 0.00 0.00 0.00 22
20260508203606 16 311 14.5 4.8 0.00 0.00 0.00 23
20260508202804 16 295 4.8 0.0 0.00 0.00 0.00 25
20260508202006 16 301 12.9 11.3 0.00 0.00 0.00 23
20260508201207 16 267 16.1 14.5 0.00 0.00 0.00 24
20260508200405 16 322 11.3 6.4 0.00 0.00 0.00 25
20260508195604 16 277 17.7 12.9 0.00 0.00 0.00 23
20260508194806 16 259 4.8 9.7 0.00 0.00 0.00 23
20260508194002 16 300 14.5 14.5 0.00 0.00 0.00 21
20260508193200 16 301 16.1 11.3 0.00 0.00 0.00 23
20260508192402 16 291 6.4 0.0 0.00 0.00 0.00 25
20260508191559 15 277 19.3 11.3 0.00 0.00 0.00 23
20260508190801 16 308 14.5 16.1 0.00 0.00 0.00 22
20260508190002 16 60 11.3 11.3 0.00 0.00 0.00 24
20260508185200 16 15 17.7 9.7 0.00 0.00 0.00 23
20260508184402 16 260 11.3 16.1 0.00 0.00 0.00 24
20260508183603 15 316 12.9 9.7 0.00 0.00 0.00 25
20260508182801 15 270 6.4 12.9 0.00 0.00 0.00 24
20260508182002 15 332 14.5 24.1 0.00 0.00 0.00 23
20260508181204 16 264 6.4 3.2 0.00 0.00 0.00 23
20260508180401 16 328 12.9 14.5 0.00 0.00 0.00 24
20260508175602 16 66 6.4 3.2 0.00 0.00 0.00 25
20260508174804 16 332 11.3 11.3 0.00 0.00 0.00 25
20260508174002 15 308 12.9 8.0 0.00 0.00 0.00 25
20260508173203 15 250 17.7 0.0 0.00 0.00 0.00 24
20260508172405 15 6 14.5 16.1 0.00 0.00 0.00 25
20260508171603 15 329 9.7 11.3 0.00 0.00 0.00 25
20260508170804 16 259 1.6 12.9 0.00 0.00 0.00 25
20260508170006 15 329 14.5 8.0 0.00 0.00 0.00 26
20260508165204 14 11 14.5 12.9 0.00 0.00 0.00 25
20260508164405 15 231 12.9 16.1 0.00 0.00 0.00 26
20260508163607 15 226 4.8 0.0 0.00 0.00 0.00 27
20260508162805 15 312 0.0 0.0 0.00 0.00 0.00 29
20260508162006 14 270 16.1 27.4 0.00 0.00 0.00 27
20260508161208 15 266 14.5 9.7 0.00 0.00 0.00 28
20260508160406 14 260 22.5 9.7 0.00 0.00 0.00 31
20260508155608 13 285 16.1 22.5 0.00 0.00 0.00 31
20260508154809 13 278 12.9 19.3 0.00 0.00 0.00 31
20260508154003 13 239 17.7 17.7 0.00 0.00 0.00 31
20260508153205 14 276 16.1 14.5 0.00 0.00 0.00 32
20260508152406 13 283 3.2 0.0 0.00 0.00 0.00 30
20260508151604 13 312 12.9 16.1 0.00 0.00 0.00 32
20260508150805 13 222 16.1 9.7 0.00 0.00 0.00 33
20260508150007 12 284 14.5 4.8 0.00 0.00 0.00 37
20260508145205 12 245 16.1 14.5 0.00 0.00 0.00 38
20260508144406 12 277 17.7 16.1 0.00 0.00 0.00 37
20260508143608 11 259 16.1 17.7 0.00 0.00 0.00 38
20260508142806 11 256 16.1 17.7 0.00 0.00 0.00 39
20260508142007 11 260 17.7 16.1 0.00 0.00 0.00 42
20260508141208 11 238 16.1 16.1 0.00 0.00 0.00 45
20260508140406 11 293 17.7 20.9 0.00 0.00 0.00 45
20260508135607 10 257 17.7 14.5 0.00 0.00 0.00 48
20260508134808 10 263 12.9 9.7 0.00 0.00 0.00 51
20260508134006 10 309 8.0 8.0 0.00 0.00 0.00 54
20260508133208 10 274 16.1 8.0 0.00 0.00 0.00 55
20260508132409 8 248 12.9 14.5 0.00 0.00 0.00 58
20260508131606 8 277 11.3 16.1 0.00 0.00 0.00 58
20260508130808 8 246 11.3 8.0 0.00 0.00 0.00 64
20260508130009 7 294 0.0 6.4 0.00 0.00 0.00 72
20260508125206 6 349 0.0 0.0 0.00 0.00 0.00 79
20260508124407 5 349 0.0 0.0 0.00 0.00 0.00 85
20260508123608 3 349 0.0 0.0 0.00 0.00 0.00 89
20260508122806 3 349 0.0 0.0 0.00 0.00 0.00 91
20260508122007 2 349 0.0 0.0 0.00 0.00 0.00 93
20260508121203 2 349 0.0 0.0 0.00 0.00 0.00 94
20260508120400 1 349 0.0 0.0 0.00 0.00 0.00 94
20260508115601 0 349 0.0 0.0 0.00 0.00 0.00 95
20260508114801 0 349 0.0 0.0 0.00 0.00 0.00 95
20260508113958 0 349 0.0 0.0 0.00 0.00 0.00 95
20260508113159 -2 349 0.0 0.0 0.00 0.00 0.00 95
20260508112400 -1 349 0.0 0.0 0.00 0.00 0.00 96
20260508111554 -4 349 0.0 0.0 0.00 0.00 0.00 95
20260508110751 -3 349 0.0 0.0 0.00 0.00 0.00 95
20260508105951 -3 349 0.0 0.0 0.00 0.00 0.00 95
20260508105147 -5 349 0.0 0.0 0.00 0.00 0.00 95
20260508104347 -4 349 0.0 0.0 0.00 0.00 0.00 95
20260508103548 -5 349 0.0 0.0 0.00 0.00 0.00 96
20260508102744 -5 349 0.0 0.0 0.00 0.00 0.00 96